Flag for Germany Weather past 2 weeks in Garbsen, Lower Saxony, Germany

Now
54 °F

Light rain. Passing clouds.


Feels Like: 49 °F
Forecast: 43 / 54 °F
Wind: 17 mph from Southwest

Location: Hannover

Current Time: Dec 18, 2014 at 7:24:01 PM

Latest Report: Dec 18, 2014 at 6:50 PM


Visibility: 3 mi

Pressure: 29.71 "Hg

Humidity: 94%

Dew point: 52 °F

Location of GarbsenLocation

Historic Weather in Garbsen — Graph

°F

Garbsen temperature yesterday

Maximum temperature yesterday: 48 °F (at 9:50 PM)
Minimum temperature yesterday: 34 °F (at 2:50 AM)
Average temperature yesterday: 40 °F

Past Weeks' High & Low Weather Summary

 TemperatureHumidityPressure
High54 °F (Dec 18, 2:20 PM)100% (Dec 4, 2:20 AM)30.36 "Hg (Dec 4, 2:20 AM)
Low27 °F (Dec 3, 6:20 PM)66% (Dec 7, 4:20 PM)29.33 "Hg (Dec 12, 12:50 PM)
Average39 °F88%29.91 "Hg
* Reported Dec 3 6:20 PM — Dec 18 6:20 PM, Garbsen, Weather by CustomWeather, © 2014

Note: Actual official high and low records may vary slightly from our data, if they occured in-between our weather recording intervals... More about our weather records

Advertising

Garbsen weather history for previous 24 hours

 ConditionsComfort  
Time TempWeatherWind HumidityBarometerVisibility
6:20 PM
Dec 18
54 °FPassing clouds.16 mph94%29.71 "Hg4 mi
5:50 PM54 °FPassing clouds.16 mph94%29.71 "Hg5 mi
5:20 PM54 °FPassing clouds.15 mph94%29.71 "HgN/A
4:50 PM54 °FPassing clouds.16 mph88%29.71 "HgN/A
4:20 PM54 °FPassing clouds.16 mph88%29.71 "HgN/A
3:50 PM52 °FPartly sunny.12 mph94%29.71 "HgN/A
3:20 PM52 °FDrizzle. Broken clouds.13 mph94%29.71 "Hg3 mi
2:50 PM54 °FPartly sunny.12 mph88%29.74 "HgN/A
2:20 PM54 °FPartly sunny.13 mph88%29.74 "HgN/A
1:50 PM52 °FDrizzle. Partly sunny.12 mph94%29.74 "Hg5 mi
1:20 PM52 °FDrizzle. Partly sunny.13 mph94%29.74 "HgN/A
12:50 PM52 °FPartly sunny.9 mph94%29.77 "HgN/A
12:20 PM52 °FLow clouds.12 mph94%29.77 "HgN/A
11:20 AM52 °FLow clouds.13 mph94%29.77 "HgN/A
10:50 AM52 °FOvercast.12 mph88%29.77 "HgN/A
10:20 AM52 °FOvercast.10 mph88%29.77 "HgN/A
9:50 AM52 °FOvercast.10 mph88%29.77 "HgN/A
9:20 AM52 °FPartly sunny.10 mph88%29.77 "HgN/A
8:50 AM50 °FPartly sunny.10 mph94%29.77 "HgN/A
8:20 AM50 °FPassing clouds.12 mph94%29.77 "HgN/A
7:50 AM50 °FPassing clouds.9 mph94%29.77 "Hg5 mi
7:20 AM50 °FPassing clouds.10 mph94%29.77 "Hg4 mi
6:50 AM50 °FPassing clouds.9 mph94%29.77 "Hg4 mi
6:20 AM48 °FPartly cloudy.8 mph100%29.77 "Hg4 mi
5:50 AM50 °FPartly cloudy.7 mph88%29.77 "Hg4 mi
5:20 AM50 °FPartly cloudy.7 mph88%29.77 "Hg5 mi
4:20 AM50 °FOvercast.12 mph88%29.77 "Hg6 mi
3:50 AM50 °FOvercast.10 mph88%29.77 "Hg6 mi
3:20 AM48 °FPassing clouds.9 mph94%29.74 "Hg6 mi
2:50 AM48 °FPassing clouds.10 mph94%29.77 "Hg6 mi
2:20 AM48 °FMostly cloudy.12 mph94%29.74 "Hg6 mi
1:50 AM48 °FMostly cloudy.10 mph94%29.74 "Hg6 mi
1:20 AM48 °FMostly cloudy.8 mph94%29.74 "HgN/A
12:50 AM48 °FMostly cloudy.9 mph94%29.74 "HgN/A
12:20 AM48 °FPassing clouds.8 mph94%29.74 "HgN/A
11:20 PM
Dec 17
48 °FPassing clouds.9 mph94%29.71 "HgN/A
10:50 PM48 °FPartly cloudy.9 mph87%29.71 "HgN/A
10:20 PM48 °FPassing clouds.13 mph94%29.68 "HgN/A
9:50 PM48 °FPartly cloudy.13 mph87%29.68 "HgN/A
9:20 PM46 °FLight rain. Partly cloudy.13 mph93%29.65 "Hg6 mi
8:50 PM46 °FPartly cloudy.10 mph93%29.65 "HgN/A
8:20 PM46 °FLight rain. Low clouds.12 mph93%29.62 "HgN/A
7:50 PM46 °FLow clouds.12 mph93%29.62 "HgN/A
7:20 PM45 °FLight rain. Fog.10 mph100%29.59 "Hg5 mi
Weather by CustomWeather, © 2014

See weather overviewHow to use our weather pages